Temp
37 30 26 28 31 33 32 30 28 33 40 37 36 37 41 46 44 46 46 51 50 54 58 60 58 59 60 61 60 59 56 55 54 53 52 52 50 47 47 51 52 51 50 49
31 27 32 35 35 32 30 27 29 34 38 36 35 35 41 44 44 46 47 49 52 54 57 57 57 59 59 59 59 57 56 54 55 55 56 54 51 51 47 49 50 50 48 48
27 32 37 34 32 30 30 26 28 27 34 37 34 30 36 43 46 48 49 51 53 53 56 56 56 57 59 59 58 56 55 55 55 56 53 50 49 49 48 48 47 47 47 46
29 34 33 32 30 31 25 34 33 31 26 22 32 19 32 39 42 44 46 48 49 52 54 55 56 56 57 58 58 56 54 55 55 53 53 50 50 48 48 47 45 44 45 44
29 31 31 30 31 34 30 35 33 31 27 27 27 23 29 36 37 42 44 47 48 50 52 53 55 57 58 58 56 55 54 54 53 54 53 52 49 48 46 44 43 43 42 43
31 36 33 32 35 35 37 32 32 30 24 19 26 25 27 33 38 43 47 49 49 49 51 53 55 57 57 58 55 53 53 52 52 52 51 51 46 43 42 41 41 41 41 41
30 31 33 36 31 33 31 26 14 8 16 16 28 23 29 39 41 44 46 49 48 50 49 50 52 53 56 55 54 52 52 49 51 51 50 47 46 45 43 42 41 40 39 39
19 16 31 35 32 30 30 25 16 6 15 19 30 19 32 39 41 42 44 48 46 46 48 49 49 49 48 52 52 52 51 48 48 47 45 45 44 43 42 40 40 41 40 40
20 20 33 36 37 34 29 24 32 24 24 20 18 28 37 39 41 42 44 44 43 45 47 47 47 48 47 48 49 49 47 46 46 44 43 42 42 41 39 39 40 40 40 40
26 20 31 33 34 35 32 34 24 18 15 13 17 20 26 32 35 36 37 38 43 45 45 45 46 48 47 46 46 47 46 43 43 42 42 41 41 40 39 39 39 39 39 40
27 26 26 31 27 22 27 27 28 26 22 19 18 23 35 32 33 32 34 38 43 46 42 42 42 43 44 44 44 43 43 42 41 42 41 40 39 39 40 39 38 39 39 38
30 26 18 24 34 32 31 27 29 23 19 24 24 25 38 37 36 34 32 39 43 42 40 40 40 40 41 41 42 42 42 41 41 41 40 39 39 39 38 37 37 37 36 38
29 21 11 17 25 30 27 29 31 30 29 23 21 25 45 42 40 38 33 36 40 40 39 38 38 38 38 39 40 40 40 40 40 40 39 38 38 38 37 37 36 36 37 37
33 23 17 13 22 26 24 27 29 26 22 23 24 28 36 38 38 35 34 34 37 38 37 37 37 37 37 37 37 38 38 39 39 40 39 38 37 37 36 36 36 36 36 35
30 17 18 22 25 25 24 24 26 26 28 23 28 28 33 37 36 38 38 34 35 35 35 36 35 35 36 36 36 37 37 39 40 39 38 37 36 36 36 35 35 34 34 34
26 12 17 17 21 23 23 26 27 28 29 27 28 28 40 40 41 40 39 37 33 34 35 34 34 34 34 36 36 36 36 37 39 38 36 35 35 35 34 34 34 33 32 32
24 20 10 7 18 16 9 22 28 28 29 29 24 33 37 36 39 39 39 37 38 35 35 34 34 33 34 36 37 36 36 37 37 35 35 34 34 34 33 33 32 32 31 31
25 21 14 8 10 4 25 28 29 27 30 31 31 34 35 36 39 39 39 39 39 38 36 35 35 34 35 36 37 36 36 35 34 33 33 34 34 33 32 32 31 30 30 29
27 24 12 3 -3 15 25 27 26 25 26 32 30 33 35 37 38 39 40 40 40 39 39 38 38 37 36 36 36 35 34 33 33 33 33 33 33 31 31 31 30 29 28 27
27 25 18 2 3 2 22 28 29 30 20 31 31 32 32 36 34 37 39 39 39 39 38 38 37 37 36 35 35 34 33 33 33 33 33 32 32 32 31 30 28 27 27 28
12 18 14 7 10 13 27 30 30 19 26 32 33 33 32 32 35 38 39 38 38 37 36 36 36 36 35 35 35 34 33 33 34 33 31 31 31 31 30 27 24 24 24 25
9 9 6 11 8 10 31 28 27 32 33 33 33 33 33 34 35 36 37 36 36 35 34 34 33 32 32 33 34 33 33 32 31 31 30 28 27 28 28 25 21 20 21 18
10 18 14 18 21 31 30 32 34 34 34 33 34 35 33 34 34 35 35 34 34 34 33 33 31 30 30 31 33 32 32 31 30 27 25 25 24 25 24 23 20 18 16 17
18 21 17 22 27 29 30 31 32 35 33 34 34 34 33 33 34 34 34 34 33 33 32 30 28 28 28 26 27 29 29 27 26 26 25 24 24 21 19 21 21 19 18 17
23 21 18 18 28 30 31 31 33 33 34 33 33 33 34 34 33 33 32 32 32 31 30 28 28 27 26 24 23 21 26 26 27 26 23 22 22 21 19 20 21 23 22 23
22 22 21 21 29 30 31 31 33 32 32 33 31 31 33 33 33 32 31 29 29 30 26 23 22 22 21 21 21 18 21 26 24 22 21 22 22 21 21 21 19 28 30 30
MSLP
1020.31 1020.71 1020.71 1020.75 1020.96 1020.87 1020.65 1020.22 1019.14 1018.40 1017.55 1016.41 1014.87 1012.33 1012.29 1011.88 1011.13 1010.24 1009.79 1009.34 1008.76 1008.15 1007.76 1007.73 1008.89 1009.26 1009.71 1010.47 1011.23 1011.82 1012.95 1014.54 1014.89 1016.25 1016.99 1017.66 1018.20 1018.96 1019.40 1019.71 1019.99 1020.55 1020.98 1021.35
1021.12 1020.89 1020.54 1020.75 1020.73 1020.67 1020.62 1020.21 1019.08 1017.26 1017.03 1016.59 1014.88 1012.07 1011.79 1011.43 1010.69 1010.20 1009.28 1008.68 1008.19 1007.98 1007.69 1007.88 1007.91 1008.68 1009.04 1009.66 1010.46 1011.03 1012.31 1013.42 1014.34 1015.25 1016.34 1017.10 1018.16 1019.08 1019.53 1020.05 1020.43 1020.75 1021.18 1021.68
1021.82 1020.70 1020.59 1020.67 1020.32 1020.26 1020.18 1019.92 1018.32 1017.64 1016.61 1016.07 1014.80 1012.07 1011.01 1009.78 1008.93 1008.50 1007.73 1007.07 1007.11 1006.91 1006.87 1007.22 1007.25 1007.62 1008.27 1008.81 1009.52 1010.61 1011.09 1012.47 1013.83 1014.91 1015.96 1017.24 1018.27 1019.08 1019.83 1020.38 1020.89 1021.21 1021.62 1022.26
1021.59 1020.92 1020.67 1020.42 1020.22 1019.91 1019.49 1018.27 1017.85 1017.38 1017.03 1015.79 1014.75 1011.57 1010.16 1009.08 1007.69 1006.92 1006.14 1005.72 1005.36 1005.68 1006.02 1006.04 1006.24 1006.35 1007.13 1007.86 1008.62 1009.66 1010.25 1011.75 1013.24 1014.35 1015.13 1015.98 1017.07 1018.23 1019.19 1020.04 1020.81 1021.46 1021.90 1022.56
1021.57 1020.83 1020.60 1020.35 1019.48 1019.10 1018.12 1017.86 1017.85 1017.23 1016.60 1015.80 1014.19 1012.91 1008.36 1007.92 1006.51 1005.27 1004.60 1004.35 1004.05 1003.99 1004.34 1005.02 1005.39 1005.57 1006.23 1007.14 1007.89 1009.14 1009.59 1011.25 1012.52 1013.73 1014.48 1015.45 1016.76 1017.61 1018.88 1020.26 1021.03 1021.66 1022.17 1022.79
1021.68 1020.61 1020.34 1019.52 1018.69 1018.61 1017.82 1018.04 1017.42 1016.43 1016.08 1015.32 1012.00 1012.07 1009.52 1006.80 1004.95 1004.38 1003.63 1003.20 1002.89 1002.92 1003.05 1003.59 1004.08 1004.84 1005.42 1006.02 1007.21 1008.16 1009.17 1010.12 1012.13 1013.51 1014.27 1014.94 1016.11 1017.38 1018.87 1020.11 1021.15 1021.90 1022.27 1022.64
1021.70 1020.61 1019.58 1019.16 1018.71 1018.00 1018.27 1018.44 1017.84 1016.82 1016.07 1013.80 1011.66 1010.85 1007.80 1005.56 1004.41 1003.68 1002.71 1002.30 1002.26 1002.45 1002.76 1002.85 1003.40 1004.33 1005.00 1005.46 1006.07 1007.29 1008.72 1009.68 1011.68 1013.00 1014.17 1014.96 1016.05 1016.99 1018.32 1019.75 1021.01 1021.36 1022.06 1022.95
1023.18 1020.98 1019.55 1018.95 1018.93 1018.71 1018.23 1018.49 1018.67 1017.12 1015.60 1013.31 1011.92 1009.85 1006.12 1004.92 1004.99 1004.56 1003.45 1002.60 1001.86 1002.02 1002.35 1002.68 1003.04 1003.52 1004.89 1004.97 1005.45 1006.35 1007.88 1009.95 1011.38 1012.79 1014.21 1015.45 1016.55 1017.64 1018.69 1019.78 1021.34 1021.63 1022.22 1023.34
1023.80 1021.76 1019.56 1019.05 1018.61 1018.63 1017.58 1017.53 1016.83 1016.19 1014.93 1013.32 1011.00 1008.20 1006.28 1005.34 1005.08 1004.29 1002.77 1002.57 1001.83 1001.85 1002.26 1002.40 1002.94 1003.40 1004.70 1005.98 1005.36 1006.41 1007.72 1009.53 1011.21 1012.59 1014.18 1015.70 1016.86 1017.98 1019.47 1020.70 1021.55 1022.06 1022.18 1023.45
1024.27 1022.60 1019.86 1018.99 1018.37 1017.58 1017.78 1017.11 1016.62 1016.44 1015.09 1013.13 1010.53 1008.85 1007.03 1006.48 1005.20 1005.03 1004.29 1003.44 1002.36 1001.96 1002.33 1002.63 1003.16 1003.11 1004.60 1005.79 1006.85 1006.78 1007.42 1008.92 1011.08 1012.80 1014.12 1015.55 1017.05 1018.26 1019.78 1021.41 1021.75 1022.51 1022.79 1023.53
1024.50 1023.91 1020.61 1019.85 1018.61 1018.00 1017.79 1017.11 1016.82 1016.38 1015.44 1013.29 1010.68 1008.41 1007.53 1007.17 1006.81 1005.88 1004.99 1003.62 1002.56 1002.09 1002.52 1003.03 1003.36 1004.45 1005.30 1005.64 1006.67 1007.80 1008.13 1009.48 1011.48 1012.35 1013.94 1015.46 1017.19 1018.44 1019.63 1021.65 1022.10 1022.78 1023.66 1023.96
1024.52 1023.91 1022.11 1020.19 1018.01 1017.95 1017.78 1017.44 1017.25 1016.41 1015.08 1013.53 1011.77 1007.93 1006.83 1006.92 1006.64 1006.18 1005.08 1003.47 1002.01 1002.23 1002.97 1003.24 1004.16 1005.21 1005.78 1006.67 1007.06 1008.01 1008.56 1009.57 1011.38 1012.14 1014.11 1015.67 1016.85 1018.61 1019.40 1021.79 1022.06 1022.66 1023.67 1023.74
1024.79 1024.40 1023.41 1020.32 1019.11 1018.19 1017.91 1017.59 1017.23 1016.43 1014.77 1012.94 1011.47 1008.09 1006.26 1006.12 1005.83 1005.56 1005.09 1004.28 1003.14 1003.00 1003.51 1004.40 1004.90 1005.57 1006.33 1007.13 1007.52 1008.24 1009.92 1010.29 1011.43 1012.83 1014.37 1015.74 1017.86 1018.53 1020.25 1021.09 1021.81 1022.60 1023.41 1023.78
1024.85 1024.76 1024.32 1023.37 1020.97 1019.59 1018.44 1017.87 1017.19 1016.75 1014.81 1013.13 1010.56 1008.72 1006.72 1006.19 1005.64 1005.53 1005.03 1004.82 1004.40 1004.01 1004.43 1005.00 1005.81 1006.41 1006.95 1007.61 1008.01 1009.44 1010.54 1012.00 1011.89 1013.39 1015.14 1016.31 1017.52 1018.85 1019.92 1020.80 1021.90 1022.51 1023.30 1023.95
1024.99 1024.85 1024.38 1022.99 1021.62 1020.00 1018.59 1018.15 1016.20 1015.75 1014.40 1013.40 1010.31 1009.53 1007.81 1007.08 1006.34 1005.81 1005.37 1005.21 1005.09 1005.26 1005.45 1006.15 1006.75 1007.30 1007.99 1008.81 1008.79 1009.47 1010.94 1012.84 1012.88 1013.64 1015.49 1016.82 1017.99 1018.86 1020.29 1021.23 1022.15 1022.99 1023.28 1023.68
1025.32 1025.11 1024.61 1022.85 1021.13 1019.89 1018.39 1017.49 1015.73 1014.57 1013.68 1012.63 1011.36 1009.59 1007.88 1007.04 1006.56 1005.87 1005.51 1005.52 1005.58 1006.07 1006.45 1006.85 1007.55 1008.31 1008.91 1009.42 1009.26 1010.39 1012.48 1013.18 1012.96 1014.27 1016.04 1017.06 1017.97 1019.17 1020.33 1021.32 1022.16 1022.72 1023.33 1023.78
1025.40 1025.51 1025.45 1023.81 1022.11 1020.09 1018.19 1016.23 1015.15 1014.28 1013.29 1012.72 1011.66 1010.02 1008.97 1007.55 1007.07 1006.19 1006.04 1006.70 1006.15 1006.60 1006.91 1007.39 1008.24 1008.71 1009.17 1009.56 1009.68 1011.03 1012.58 1013.21 1013.86 1015.14 1016.15 1017.02 1018.12 1019.12 1019.88 1020.98 1021.90 1022.85 1023.37 1023.89
1025.07 1025.82 1025.95 1025.26 1023.37 1020.83 1016.65 1015.58 1014.70 1014.06 1013.02 1012.37 1011.78 1010.83 1009.73 1008.79 1007.77 1007.11 1006.65 1007.00 1006.88 1006.75 1007.34 1008.14 1008.57 1009.36 1009.82 1010.36 1010.91 1011.87 1013.11 1013.79 1014.57 1015.52 1016.22 1017.20 1018.24 1019.41 1020.39 1021.04 1021.64 1022.67 1023.30 1023.78
1025.31 1025.81 1026.16 1026.32 1025.43 1021.00 1016.47 1014.72 1014.22 1013.77 1013.00 1012.16 1011.82 1010.96 1009.72 1008.61 1008.01 1007.61 1007.11 1007.27 1007.30 1007.26 1007.53 1008.31 1008.95 1009.65 1010.60 1011.10 1011.54 1012.35 1013.23 1014.07 1015.15 1015.73 1016.23 1017.19 1018.23 1019.30 1020.14 1020.97 1021.76 1022.58 1023.29 1023.87
1025.62 1025.76 1025.96 1026.31 1025.47 1021.51 1016.48 1014.39 1013.99 1013.79 1013.13 1012.22 1011.99 1011.51 1010.50 1009.33 1008.87 1008.84 1008.16 1008.00 1008.16 1008.05 1008.32 1008.55 1009.23 1009.79 1010.40 1011.11 1011.73 1012.35 1013.72 1014.58 1015.27 1015.71 1016.37 1017.32 1018.12 1019.23 1020.07 1020.91 1021.85 1022.56 1023.07 1023.60
1026.39 1025.74 1025.48 1025.29 1023.95 1019.97 1015.75 1014.61 1014.17 1013.90 1013.39 1012.33 1011.98 1011.58 1011.32 1010.87 1010.72 1009.97 1009.31 1008.98 1008.88 1009.00 1009.18 1009.53 1009.89 1010.39 1010.90 1011.50 1012.27 1013.13 1014.05 1014.70 1015.45 1015.86 1016.82 1017.78 1018.34 1019.27 1020.10 1021.19 1021.89 1022.48 1023.12 1023.55
1025.49 1025.30 1024.68 1023.77 1022.22 1018.34 1014.50 1014.54 1014.15 1013.41 1012.63 1012.51 1012.10 1011.56 1011.64 1011.34 1010.71 1010.34 1010.00 1009.59 1009.69 1009.75 1010.10 1010.36 1010.56 1011.29 1011.86 1012.29 1012.76 1013.71 1014.62 1015.02 1015.58 1016.41 1017.11 1017.81 1018.92 1019.65 1020.40 1021.26 1021.89 1022.40 1022.93 1023.61
1024.19 1022.23 1021.69 1020.82 1017.46 1014.74 1014.02 1013.64 1013.17 1013.17 1012.66 1012.34 1012.09 1011.63 1011.69 1011.34 1011.10 1010.73 1010.69 1010.55 1010.41 1010.49 1010.48 1011.02 1011.32 1011.65 1012.29 1012.70 1012.99 1013.64 1014.36 1015.02 1015.75 1016.73 1017.75 1018.60 1019.23 1019.89 1020.53 1021.01 1021.69 1022.59 1023.06 1023.51
1022.06 1020.81 1020.41 1019.08 1014.74 1014.09 1013.45 1013.08 1012.88 1012.91 1012.60 1011.88 1011.59 1011.67 1011.71 1011.76 1011.51 1011.24 1011.07 1011.22 1011.36 1011.29 1011.70 1012.11 1012.04 1012.45 1012.99 1013.20 1013.85 1014.25 1014.72 1015.25 1016.13 1016.96 1017.83 1018.51 1019.17 1020.05 1020.28 1020.70 1021.48 1022.42 1022.75 1023.14
1020.31 1019.91 1018.83 1017.41 1014.81 1013.54 1012.91 1012.84 1012.63 1012.66 1012.30 1011.89 1011.79 1011.75 1011.71 1011.78 1011.62 1011.80 1011.92 1011.97 1011.99 1012.38 1012.58 1012.82 1012.73 1013.18 1013.77 1013.99 1014.35 1015.15 1015.49 1015.64 1016.37 1016.90 1017.80 1018.52 1019.18 1019.81 1020.51 1020.90 1021.19 1021.32 1021.51 1021.57
1018.09 1017.01 1017.04 1014.99 1013.45 1013.33 1012.78 1012.62 1012.73 1012.88 1012.78 1012.35 1012.39 1012.20 1011.92 1011.80 1012.00 1012.08 1012.38 1012.51 1012.36 1012.45 1012.97 1013.21 1013.52 1013.73 1013.97 1014.31 1014.95 1015.28 1015.29 1015.79 1016.61 1017.40 1018.13 1018.60 1019.11 1019.81 1020.37 1020.85 1020.90 1021.01 1021.01 1021.17
Wind_Speed
4 2 6 7 7 8 9 13 18 15 14 17 22 29 21 17 11 17 11 14 9 14 16 18 13 14 17 18 19 18 16 13 12 9 9 6 6 4 4 4 7 7 6 7
4 6 4 3 6 8 8 11 19 17 12 13 18 28 19 17 19 20 20 16 16 13 13 15 17 18 20 21 20 19 19 17 12 11 8 5 6 4 4 4 6 6 7 7
3 6 8 4 9 6 6 8 17 18 16 15 21 28 23 20 23 22 25 23 20 20 16 18 20 21 20 21 21 20 20 19 14 13 9 8 7 6 4 5 4 5 7 5
6 4 3 6 8 5 11 12 15 14 10 12 6 22 22 19 21 21 24 24 20 21 16 17 21 23 23 21 19 21 20 19 16 16 13 18 10 9 4 5 5 6 7 7
8 7 6 8 9 5 12 2 11 16 16 14 18 11 16 8 13 21 18 21 21 22 20 19 22 23 24 21 19 18 20 19 16 16 15 13 11 6 9 8 9 8 7 7
10 4 4 6 6 8 13 10 15 15 7 10 28 12 17 15 18 19 21 20 23 21 18 18 21 21 22 20 19 17 21 21 17 15 14 14 16 15 13 11 8 6 6 6
6 5 4 4 6 2 2 7 6 7 2 9 2 3 10 17 12 18 21 18 15 18 14 15 18 16 22 23 22 19 18 17 17 16 14 13 15 16 17 14 9 12 8 5
4 11 2 3 2 8 11 6 3 6 7 18 14 9 12 6 10 11 14 21 11 12 13 13 14 12 7 17 22 21 22 18 17 16 14 13 14 10 11 11 10 7 7 5
4 9 5 9 11 3 4 4 7 8 13 12 5 9 7 9 17 20 19 19 12 13 15 16 12 13 11 7 18 21 21 18 17 17 15 15 14 14 11 10 8 5 9 7
4 11 5 5 3 7 6 4 5 5 7 9 7 7 4 15 24 25 23 17 12 10 7 6 8 12 12 11 5 16 19 21 19 17 16 14 15 15 13 9 10 8 8 7
2 6 8 8 3 4 4 5 3 4 4 6 10 6 2 9 15 21 25 18 17 11 9 8 7 7 9 13 13 12 17 20 17 20 18 18 15 15 14 9 9 9 9 8
2 5 7 11 15 7 5 6 3 5 7 8 12 9 4 4 12 15 18 17 6 9 8 9 10 10 11 11 14 13 16 18 17 18 18 18 17 14 15 11 10 8 7 7
2 3 7 12 6 2 2 5 11 14 6 10 11 8 15 14 18 16 14 12 5 7 11 10 10 10 10 11 13 15 11 17 17 18 19 18 15 15 13 13 11 10 8 7
2 3 6 7 16 13 16 16 17 11 7 9 15 18 25 26 17 14 17 8 6 5 9 9 9 10 10 12 14 14 13 11 18 18 16 17 15 13 12 11 10 9 9 9
3 6 5 15 19 21 23 18 19 16 16 11 20 21 23 17 13 14 17 7 4 3 6 7 9 9 11 12 15 16 14 10 17 19 16 14 13 12 10 10 9 8 7 6
3 6 3 9 10 7 16 17 18 13 14 13 13 19 7 15 9 17 13 10 3 1 5 9 9 9 10 11 16 17 12 11 15 16 14 13 12 11 10 9 9 8 6 6
3 3 4 9 8 14 5 5 7 7 6 4 7 11 17 19 12 14 14 9 4 5 7 9 9 8 9 10 14 16 13 11 13 13 13 12 11 11 10 9 9 7 7 6
6 2 2 7 9 6 8 3 8 6 11 7 11 12 14 13 8 8 10 11 1 6 8 9 9 9 10 9 12 14 13 12 11 11 12 11 10 9 8 9 8 6 5 6
8 5 3 2 2 10 9 2 1 2 6 3 8 13 14 12 6 4 10 13 6 4 6 8 10 13 12 12 13 13 11 11 10 10 11 11 10 10 9 8 7 4 5 5
8 8 1 3 1 6 8 3 2 3 4 3 5 8 11 13 5 3 13 11 7 6 5 9 9 10 12 11 12 13 11 11 9 9 9 9 9 9 10 8 7 5 4 5
2 3 9 4 5 11 13 7 3 6 6 6 5 6 6 6 2 9 10 8 6 4 6 6 9 8 7 9 11 11 10 10 7 7 8 8 8 9 7 6 4 4 4 4
9 8 5 2 3 10 5 1 4 3 5 5 6 4 5 6 8 5 7 8 7 6 6 5 6 6 5 8 9 8 7 6 7 8 8 7 6 5 5 7 5 4 5 4
4 9 6 11 10 5 1 5 2 3 7 6 6 6 4 7 5 7 6 6 6 5 4 4 5 6 5 6 7 9 8 9 8 7 6 6 6 6 6 6 5 3 3 3
6 4 4 2 7 10 8 7 7 7 8 8 9 8 4 5 6 6 6 5 4 4 3 3 4 5 4 3 3 3 7 6 7 7 8 7 8 5 4 3 4 3 4 4
6 7 6 8 16 13 7 6 4 1 6 7 6 5 6 5 6 3 4 5 3 2 3 4 5 5 6 6 6 4 7 8 7 6 5 5 4 5 4 2 5 6 5 5
9 9 8 11 10 3 5 2 2 2 2 5 4 4 4 4 6 4 5 3 3 3 2 3 2 3 4 3 4 3 4 7 7 5 5 4 5 4 4 5 3 8 8 8
Wind_Direction
325 4 229 235 223 245 267 274 277 277 282 275 268 277 282 279 276 284 266 264 278 249 219 187 193 184 178 177 172 166 154 163 143 148 144 143 140 124 99 106 115 116 116 112
349 244 267 252 265 254 265 282 286 278 261 256 274 277 278 271 261 265 271 256 251 253 232 205 182 184 185 181 179 166 166 160 159 160 159 132 139 118 102 105 101 109 109 117
234 256 327 270 285 290 275 258 275 276 284 270 284 279 282 269 251 251 251 248 242 242 240 214 193 189 188 189 180 177 165 162 160 156 128 109 99 105 111 118 112 103 103 103
250 278 300 304 268 234 280 249 268 276 299 286 175 287 279 279 265 245 243 247 230 232 228 202 201 189 190 191 177 176 158 165 161 159 150 158 160 155 149 139 121 107 106 101
263 282 284 283 249 168 253 277 274 281 274 281 274 260 289 258 264 246 239 237 224 221 218 208 206 197 194 184 177 171 160 166 159 165 164 161 153 125 126 119 120 118 105 106
255 284 253 227 285 222 263 303 287 265 250 259 260 233 269 269 255 259 252 245 230 217 209 202 197 195 194 183 174 163 168 156 163 164 161 161 146 140 133 140 133 133 117 112
311 261 272 204 301 294 87 338 308 331 311 253 11 291 240 295 268 251 260 255 235 217 203 185 184 198 201 186 172 159 166 154 163 158 156 145 145 145 143 147 149 142 128 128
330 322 271 133 212 277 295 189 231 276 287 290 291 249 256 264 324 318 302 278 216 200 192 188 172 157 161 192 170 169 161 153 152 146 136 130 132 133 133 134 134 132 125 136
324 274 285 284 283 172 311 239 223 272 257 264 251 286 309 357 347 334 326 307 205 187 188 181 177 164 159 184 173 165 153 147 147 139 134 130 126 126 127 128 128 136 126 142
289 288 259 283 297 245 205 298 317 329 296 296 276 273 280 339 345 327 313 305 242 204 191 174 187 165 157 152 177 151 143 139 136 130 127 126 128 123 119 125 118 113 102 119
246 230 284 351 257 259 333 293 297 226 217 289 311 292 3 331 339 321 309 290 276 201 158 154 117 120 144 134 136 143 130 131 135 131 128 125 124 127 120 128 130 136 136 140
217 288 280 272 291 259 216 270 259 307 301 278 268 274 208 18 355 331 311 296 214 156 141 126 124 125 127 133 130 128 129 127 130 125 128 127 124 127 118 133 128 123 136 129
315 275 316 329 355 330 332 300 291 287 252 265 294 295 317 343 336 342 323 326 335 121 124 123 121 118 115 118 116 109 127 128 126 127 128 121 136 129 137 140 135 144 148 135
212 242 204 234 267 292 288 296 286 272 271 300 268 297 315 322 329 338 342 330 355 56 108 118 120 118 112 108 108 116 112 134 123 123 126 128 129 132 133 131 143 145 152 152
199 254 226 254 270 275 275 279 279 277 265 262 290 301 301 322 336 344 337 330 1 71 89 105 119 118 119 126 114 100 105 137 133 121 125 128 129 122 129 139 142 145 149 142
176 277 308 281 269 286 297 281 275 265 265 264 275 291 307 331 329 339 4 347 318 142 125 113 104 117 124 134 124 111 123 128 122 124 128 130 125 131 144 146 150 142 142 145
233 265 352 272 320 315 13 259 288 281 249 271 301 307 318 321 333 336 355 343 320 156 127 119 126 115 120 131 126 128 130 125 118 127 133 133 140 149 150 144 143 151 161 151
232 237 247 276 340 357 250 290 243 253 279 278 283 304 298 299 300 302 0 348 74 125 130 132 127 124 125 128 125 126 138 130 130 134 135 139 146 147 145 141 150 154 148 156
221 213 278 257 220 285 296 299 256 342 295 280 298 313 316 318 308 326 351 349 8 123 131 130 135 135 138 138 132 132 129 131 146 151 146 146 145 144 147 160 162 135 139 166
188 225 201 87 199 241 241 297 129 141 287 336 281 313 328 330 44 345 337 345 6 86 120 123 127 140 143 142 141 136 149 154 167 156 142 140 141 152 166 169 152 146 168 185
181 214 229 217 257 280 255 258 157 46 275 316 302 311 335 344 324 303 326 350 7 47 104 113 128 135 132 134 141 147 157 171 149 120 123 143 156 166 153 140 140 152 168 165
173 163 208 151 215 273 201 203 191 201 281 275 295 290 314 290 309 332 337 349 10 59 87 86 102 106 112 130 143 143 161 117 124 145 161 151 138 136 146 157 159 148 143 144
277 197 183 187 220 229 221 243 232 161 254 268 273 281 292 308 319 323 326 3 1 49 71 94 123 118 121 143 141 143 163 157 164 140 135 135 146 162 170 159 131 121 134 129
240 180 219 21 265 245 260 275 249 200 232 253 262 272 290 288 310 318 335 352 13 21 97 113 97 118 155 136 122 144 140 130 133 139 154 167 167 157 135 117 125 132 166 182
206 148 190 266 284 282 266 238 264 278 262 268 284 271 281 306 313 332 345 342 10 101 118 151 152 156 180 158 142 161 161 144 157 154 154 143 139 159 141 149 177 192 210 178
181 196 177 219 232 211 248 257 292 359 339 299 260 295 289 319 319 336 339 344 345 9 116 119 121 129 141 146 166 167 139 150 145 137 153 168 156 154 171 191 216 239 230 225